星链-34780 (STARLINK-34780)

导读

STARLINK-34780是美国SpaceX公司星链(Starlink)星座的卫星,于2025年7月31日发射。星链项目旨在构建全球低轨卫星互联网星座,为全球缺乏传统通信基础设施的偏远地区提供高速低延迟宽带服务。该卫星属于量产型星链卫星,运行于低地球轨道,搭载Ku/Ka波段通信载荷,配备霍尔推进器,具备自主避撞能力,寿命末期可主动离轨坠入大气层销毁,对环境影响可控,是星链星座全球覆盖网络建设的组成部分。

Basic Information
目录编号:
65074
目录名称:
STARLINK-34780
国际标识:
2025-165U
轨道中心:
EARTH
卫星名称:
星链-34780
卫星全名:
星链-34780 (STARLINK-34780)
卫星状态:
在轨 (已飞行408 天)
发射日期:
2025-07-31 UTC
国别 :
美国 (US)
星等 :
--
This satellite is enrolled in the Space Conjunction Data Service (SCDS) and the current flight risk assessment level is: No High Risk
Orbit Information
数据来源 国际轨道数据
星历时间: 2026-09-12T14:00:02+0800
10小时前
查看轨道信息
半长轴: 6893.067km
偏心率: 0.0000771
轨道倾角: 97.281°
近地点辐角 73.674°
升交点赤经 326.584°
平近点角 232.342°
近地点: 514.398km
远地点: 515.462km
周期: 94.925分钟
每日圈数: 15.169948
Detailed Information
固有亮度:
5
最大亮度:
2.5
卫星平台:
Starlink V1.0
覆盖范围:
全球
运营商:
太空探索技术公司
运营商所在国:
美国
制造商(研发单位):
太空探索技术公司
制造商所在国:
美国
使用方式:
暂无
Satellite Introduction
Starlink 计划是 SpaceX 推出的全球卫星互联网项目,通过发射低轨道卫星,为全球尤其是偏远地区提供高速、低延迟的互联网服务。自 2019 年起,Starlink 已部署数千颗卫星,旨在缩小全球数字鸿沟,推动互联网普及。该项目还为军事、航空等行业提供通信支持,带来广泛经济效益。
2D Orbit Map
3D Orbit Map
Orbit Altitude Analysis Chart
Orbit Inclination Analysis Chart
Orbit Comprehensive Analysis Chart
View Comprehensive Chart
Conjunction Data List
Event ID Objects TCA Miss Dist (km) Collision Risk Probability Collision Risk Index (CRI) Action
CDM_260914-071006-121606-507421
2026-09-14T
07:10:21+0000
1.414 km
极远距离
8.109664E-6 低风险 0.53
CDM_260914-091306-507406-806921
2026-09-14T
09:13:30+0000
1.432 km
极远距离
5.198689E-6 低风险 0.49
CDM_260914-122805-841306-507421
2026-09-14T
12:28:20+0000
2.227 km
极远距离
1.849452E-6 低风险 0.4
CDM_260914-133206-337706-507421
2026-09-14T
13:32:50+0000
2.373 km
极远距离
1.544485E-6 低风险 0.39
CDM_260913-000901-290406-507421
SL-3 R/B (12904)
2026-09-13T
00:09:34+0000
2.171 km
极远距离
1.077108E-6 低风险 0.36
CDM_260914-151705-320106-507421
2026-09-14T
15:17:20+0000
2.405 km
极远距离
4.258894E-7 极低风险 0.28
Miss Distance Evolution Trend with All Objects
Collision Probability Evolution Trend with All Objects